STARLINK-32823, 62823

Orbit data source: Space-Track

STARLINK-32823, 62823 is a payload satellite owned by SpaceX/Seattle (US) in LEO that was launched on Fri, 24 Jan 2025 UTC via an FALCON 9 launch vehicle from the Air Force Western Test Range (AFWTR). Payload-class satellites include a variety of spacecraft equipped with specific instruments for various scientific and technological missions. These include communications satellites like Starlink; space stations such as the ISS; scientific satellites like the Hubble; Earth observation satellites from companies like Planet Labs, Umbra, and HawkEye 360; GPS; miniature CubeSats for education and research; and military/defense satellites.

Loading next visibility...
Identifier
62823, 2025-018T
Orbit
LEO
Country
Flag of USUS
Related business
Manufacturer
SpaceX/Seattle
Mission
Operational Commercial Communications
Bus & Motor
STARLINK V2M, Unknown motor
Mass
730 kg wet, ~700 kg dry
Launch date (UTC)
2025-01-24 (10 months ago)
Launch vehicle
FALCON 9
Launch site
Air Force Western Test Range (AFWTR)
Object type
Payload
Rocket body
Debris
Shape & HBR
Box + 2 Pan, 17.7 m
Radar Cross Section
33.884 m², Large (>1 m²)

Expand to show TLE details & history
Last TLE update: 6 hours ago

TLE from 6 hours ago
0 STARLINK-32823
1 62823U 25018T   25318.74848943  .00037583  00000-0  12740-2 0  9995
2 62823  53.1601 123.2532 0001240  89.2049 270.9094 15.30217338 45582
Epoch: 2025-11-14T17:57Z
TLE epoch observation values (Epoch: 2025-11-14T17:57:49.486Z)
Latitude
-0.00002°
Longitude
159.70946°
Altitude
476.05 km
Speed
7.629 km/s
True Right ascension
08h 13m 00s
True Declination
0° 00' 00"
Sunlit
Object was in daylight at epoch
Visualization orbit readout
Latitude
Unknown
Longitude
Unknown
Altitude
Unknown
Speed
Unknown
Apparent Right ascension
Unknown
Apparent Declination
Unknown
Sunlit
N/A
Visualization observer readout
Local Sidereal Time
20:35:35
Azimuth
Unknown
Elevation
Unknown
Doppler factor
Unknown
Orbital elements
Apogee altitude
476.27 km
Perigee altitude
474.57 km
Semi-major axis
6,853.557 km
Eccentricity
0.00012
Inclination
53.1601°
RAAN
123.2532°
Arg. of periapsis
89.2049°
True anomaly
270.89519°
Mean anomaly
270.9094°
Eccentric anomaly
270.9023°
Mean motion
3.82533 °/min
Orbital period
94.11 mins
BSTAR
0.001274
Loading maneuver chart data...
Computing Atmospheric mass density...
Loading historical data...
Loading historical data...
Loading historical data...
Loading historical data...
Loading historical data...
Loading historical data...
Loading historical data...

Documentation

Showing up to 5 results
|